Weather History for King Salmon, AK

Change the Weather History Date:

Friday, September 7, 2012

  Actual Average Record
Temperature  
Mean Temperature 46 °F 51 °F  
Max Temperature 51 °F 59 °F 67 °F (1963)
Min Temperature 40 °F 43 °F 26 °F (1952)
Degree Days  
Heating Degree Days 19 14  
Month to date heating degree days 112 94  
Since 1 July heating degree days 864 706  
Cooling Degree Days 0    
Month to date cooling degree days 0  
Year to date cooling degree days 0  
Moisture  
Dew Point 41 °F    
Average Humidity 0    
Maximum Humidity 0    
Minimum Humidity 0    
Precipitation  
Precipitation 0.04 in 0.11 in 0.98 in (1986)
Month to date precipitation 1.09 0.77  
Year to date precipitation 16.76 12.37  
Snow  
Snow 0.00 in 0.00 in 0.00 in (2013)
Month to date snowfall 0.0 0.0  
Since 1 July snowfall 0.0 0.0  
Since 1 September snowfall 0.0 0.0  
Snow Depth 0.00 in    
Sea Level Pressure  
Sea Level Pressure 29.95 in    
Wind  
Wind Speed 8 mph (South)    
Max Wind Speed 17 mph    
Max Gust Speed 23 mph    
Visibility 10 miles    
Events Rain    
T = Trace of Precipitation, MM = Missing Value Source: NWS Daily Summary

Daily Weather History Graph

Daily Weather History Graph

Search for Another Location

Airport:

Trip Planner

Search our weather history database for the weather conditions in past years. The results will help you decide how hot, cold, wet, or windy it might be!

Date:

Astronomy

Sep. 07, 2012 Rise Set
Actual Time 7:39 AM AKDT 9:07 PM AKDT
Civil Twilight 6:58 AM AKDT 9:48 PM AKDT
Nautical Twilight 6:05 AM AKDT 10:40 PM AKDT
Astronomical Twilight 5:05 AM AKDT 11:40 PM AKDT
Moon 11:28 PM AKDT (9/7) 4:25 PM AKDT (9/7)
Length of Visible Light 14h 50m
Length of Day
13h 27m
Waning Gibbous, 57% of the Moon is Illuminated
Sep 7
Waning Gibbous
Sep 8
Last Quarter
Sep 15
New
Sep 22
First Quarter
Sep 29
Full

Hourly Weather History & Observations

Time (AKDT) Temp. Windchill Dew Point Humidity Pressure Visibility Wind Dir Wind Speed Gust Speed Precip Events Conditions
12:54 AM 43.0 °F 38.8 °F 39.9 °F 89% 30.06 in 10.0 mi SE 6.9 mph - N/A   Mostly Cloudy
1:54 AM 39.9 °F 35.1 °F 37.9 °F 93% 30.05 in 10.0 mi SE 6.9 mph - N/A   Scattered Clouds
2:54 AM 43.0 °F 39.5 °F 39.9 °F 89% 30.03 in 10.0 mi SE 5.8 mph - N/A   Overcast
3:54 AM 42.1 °F 38.4 °F 39.0 °F 89% 30.01 in 10.0 mi SE 5.8 mph - N/A   Mostly Cloudy
4:54 AM 42.1 °F 39.2 °F 37.9 °F 85% 30.00 in 10.0 mi SSE 4.6 mph - N/A   Mostly Cloudy
4:59 AM 42.8 °F 38.0 °F 39.2 °F 87% 30.03 in 10.0 mi SE 8.1 mph - N/A   Overcast
5:54 AM 41.0 °F 37.1 °F 37.9 °F 89% 29.98 in 10.0 mi SSE 5.8 mph - N/A   Overcast
6:54 AM 41.0 °F 38.0 °F 39.0 °F 93% 29.97 in 10.0 mi SSE 4.6 mph - N/A   Overcast
7:54 AM 43.0 °F 37.7 °F 39.0 °F 86% 29.96 in 10.0 mi SSE 9.2 mph - N/A   Overcast
8:54 AM 42.8 °F 38.0 °F 41.0 °F 93% 29.95 in 7.0 mi South 8.1 mph - 0.01 in Rain Light Rain
9:13 AM 42.8 °F 38.6 °F 42.8 °F 100% 29.95 in 7.0 mi SSE 6.9 mph - 0.00 in Rain Light Rain
9:26 AM 42.8 °F 38.0 °F 42.8 °F 100% 29.94 in 7.0 mi SE 8.1 mph - 0.01 in Rain Light Rain
9:54 AM 44.1 °F 39.5 °F 42.1 °F 93% 29.94 in 10.0 mi SSE 8.1 mph - 0.02 in Rain Light Rain
11:54 AM 48.0 °F - 44.1 °F 86% 29.93 in 10.0 mi South 11.5 mph - N/A   Mostly Cloudy
12:10 PM 48.2 °F - 42.8 °F 82% 29.93 in 10.0 mi South 13.8 mph 19.6 mph N/A   Mostly Cloudy
12:54 PM 48.9 °F - 42.1 °F 77% 29.92 in 10.0 mi South 12.7 mph - N/A   Mostly Cloudy
1:20 PM 50.0 °F - 42.8 °F 76% 29.91 in 10.0 mi South 12.7 mph - 0.00 in   Overcast
1:31 PM 51.8 °F - 42.8 °F 71% 29.91 in 10.0 mi SSW 15.0 mph 19.6 mph 0.00 in   Overcast
1:54 PM 48.9 °F - 41.0 °F 74% 29.91 in 10.0 mi South 13.8 mph - 0.00 in   Mostly Cloudy
2:54 PM 46.9 °F - 43.0 °F 86% 29.90 in 10.0 mi South 9.2 mph - 0.01 in Rain Light Rain
3:10 PM 44.6 °F 39.7 °F 39.2 °F 81% 29.95 in 10.0 mi SSW 9.2 mph - N/A   Overcast
3:54 PM 48.0 °F - 41.0 °F 77% 29.88 in 10.0 mi South 9.2 mph - N/A   Overcast
4:54 PM 48.0 °F - 41.0 °F 77% 29.87 in 10.0 mi SW 8.1 mph - 0.00 in   Overcast
7:54 PM 44.1 °F 40.8 °F 42.1 °F 93% 29.84 in 10.0 mi SSW 5.8 mph - 0.00 in Rain Light Rain
10:54 PM 43.0 °F 40.3 °F 41.0 °F 93% 29.84 in 10.0 mi South 4.6 mph - N/A   Mostly Cloudy